INTELSAT 14 (IS-14)

Last updated on Tue Sep 16 2025 00:02:46 GMT+0000 (Coordinated Universal Time)

1 36097U 09064A 25258.43290861 .00000000 00000+0 00000+0 0 9997 2 36097 0.0171 141.6301 0002553 49.8796 273.9824 1.00269546 57853
UTC large
Height (km)
Speed (km/s)
/
Latitude / Longitude
Inclination (degrees)
Orbital Period (minutes)
Azimuth
Elevation
Range (km)
Doppler Factor

Next 0 passes for location: London (51.5072 / 0.1276)

Sorry there are no passes over London.